Lexington Weather

Lexington, Massachusetts, USA

69°F
8/17/2022 7:31pm 
  • Lexington Conditions: Overcast
  • Temperature: 69.4°F / 20.8°CColder 0.6°F than last hour.
  • Dew Point: 57.2°FDecreased 2.2°Fsince last hour.
  • Relative Humidity: 65%Decreased 4.0% since last hour.
  • Wind: Calm, 10-min avg: Calm, gust: None
  • Barometer: 29.84 in Steady
  • Visibility: 10 miles
  • Rain Today: 0.00 in
  •   

Regional Weather Roundup
for Boston, MA

        
000
ASUS41 KBOX 151810
RWRBOX

REGIONAL WEATHER ROUNDUP
NATIONAL WEATHER SERVICE BOSTON/NORTON MA
200 PM EDT MON AUG 15 2022

NOTE:  "FAIR" INDICATES FEW OR NO CLOUDS BELOW 12,000 FEET WITH NO 
SIGNIFICANT WEATHER AND/OR OBSTRUCTIONS TO VISIBILITY.

MAZALL-151900-
EASTERN MASSACHUSETTS
  
CITY           SKY/WX    TMP DP  RH WIND       PRES   REMARKS
BOSTON         PTSUNNY   74  60  61 E12       30.02S                  
6HR MIN TEMP:  71; 6HR MAX TEMP:  75;                                

BEVERLY        MOSUNNY   79  52  38 SE12      30.01S                  
LAWRENCE       MOSUNNY   85  50  29 E10       30.02F                  
BEDFORD        MOSUNNY   82  49  31 E10       29.99S                  
BLUE HILL      NOT AVBL                                               
NORWOOD        MOSUNNY   85  50  29 N8        29.99F                  
MARSHFIELD     MOSUNNY   75  61  60 NE8       30.02S                  
PLYMOUTH       MOSUNNY   80  57  45 NE8       30.01S                  
TAUNTON          N/A    N/A N/A N/A MISG      29.99S                  
NEW BEDFORD    MOSUNNY   79  56  45 SE14      30.00S                  
$$

MAZALL-151900-
CAPE COD AND THE ISLANDS
  
CITY           SKY/WX    TMP DP  RH WIND       PRES   REMARKS
FALMOUTH       SUNNY     77  55  47 SE16      30.02S                  
HYANNIS        MOSUNNY   75  57  53 SE10      30.01S                  
CHATHAM        PTSUNNY   73  56  54 SE7       30.03S                  
NANTUCKET      PTSUNNY   75  62  64 E13       30.02S                  
MARTHAS VNYRD  MOSUNNY   76  60  57 VRB7      30.02R                  
$$
 
MAZALL-151900-
CENTRAL AND WESTERN MASSACHUSETTS
  
CITY           SKY/WX    TMP DP  RH WIND       PRES   REMARKS
WORCESTER      MOSUNNY   79  50  36 NE7       30.03S                  
6HR MIN TEMP:  69; 6HR MAX TEMP:  81;                                

FITCHBURG      MOSUNNY   83  43  24 S7        30.01F                  
ORANGE         MOSUNNY   80  50  34 VRB5      30.02S                  
SPRINGFIELD    PTSUNNY   80  45  28 NW5       29.96F                  
WESTFIELD      MOSUNNY   84  48  28 S7        29.99S                  
NORTH ADAMS    MOSUNNY   83  51  33 VRB3      29.99F                  
PITTSFIELD     CLOUDY    76  53  44 E6        30.01S                  
$$
 
RIZALL-151900-
RHODE ISLAND
  
CITY           SKY/WX    TMP DP  RH WIND       PRES   REMARKS
PROVIDENCE     MOSUNNY   82  59  45 S12       29.99F                  
6HR MIN TEMP:  66; 6HR MAX TEMP:  84;                                

NEWPORT        MOSUNNY   76  59  55 S10       30.01S                  
BLOCK ISLAND   PTSUNNY   75  57  53 SE8       30.01F                  
SMITHFIELD     MOSUNNY   80  50  34 E5        30.00F                  
WESTERLY       MOSUNNY   77  59  53 SE12      30.00F                  
$$
 
CTZALL-151900-
CONNECTICUT
  
CITY           SKY/WX    TMP DP  RH WIND       PRES   REMARKS
BRADLEY INTL   PTSUNNY   84  52  33 CALM      29.99F                  
6HR MIN TEMP:  63; 6HR MAX TEMP:  84;                                

HARTFORD       PTSUNNY   84  54  35 VRB6      29.97F                  
BRIDGEPORT     PTSUNNY   79  53  40 S9        29.99S                  
DANBURY        MOSUNNY   84  52  33 E9        30.00S                  
GROTON         PTSUNNY   76  59  55 S7        29.99S                  
NEW HAVEN      PTSUNNY   80  59  48 S8        30.00S                  
CHESTER        FAIR      77  52  41 VRB5G15   30.01R                  
MERIDEN        PTSUNNY   80  52  37 S5        29.98F                  
WILLIMANTIC    PTSUNNY   81  49  32 SE3       29.99F                  
OXFORD         MOSUNNY   82  52  35 E6        30.02S                  
$$

MEZ002-015-021-024-NHZ003-005-008-011-012-014-VTZ005-008-151900-
NORTHERN NEW ENGLAND
  
CITY           SKY/WX    TMP DP  RH WIND       PRES   REMARKS
PORTLAND ME    CLOUDY    80  58  46 E10       30.03F                  
6HR MIN TEMP:  67; 6HR MAX TEMP:  81;                                

BANGOR ME      MOSUNNY   84  55  36 NE5       30.03S                  
CONCORD NH     CLOUDY    80  50  34 VRB3      30.01S                  
MANCHESTER NH  PTSUNNY   83  48  29 VRB5      29.99F                  
NASHUA NH      PTSUNNY   84  51  31 VRB6      30.00F                  
PORTSMOUTH NH  PTSUNNY   80  49  33 SE10      30.02S                  
JAFFREY NH     PTSUNNY   79  47  32 CALM      30.04S                  
KEENE NH       PTSUNNY   80  51  36 S7          N/A                   
BURLINGTON VT  MOSUNNY   83  46  27 N8        30.02F                  
MT. WASHINGTON NOT AVBL                                               
$$

NYZ052-076-151900-
EASTERN NEW YORK
  
CITY           SKY/WX    TMP DP  RH WIND       PRES   REMARKS
ALBANY         MOSUNNY   83  56  39 N3        29.98F                  
6HR MIN TEMP:  63; 6HR MAX TEMP:  84;                                

NEW YORK CITY  PTSUNNY   82  53  36 E9        29.98R                  
6HR MIN TEMP:  72; 6HR MAX TEMP:  83;                                

$$
 
ANZALL-151900-
MARINE OBSERVATIONS
  
STATION/POSITION TIME  TEMP    WIND        PRES    VSBY  WAVE
                       AIR SEA DIR/SP/G                  HT/PER
                 (UTC) (F)     (DEG/KT/KT) (MB)    (MI)  (FT/S)
BOSTON BUOY      NOT AVBL
BUZZARDS BAY     NOT AVBL
NANTUCKET SOUND  NOT AVBL
MASS BAY-STELLWA NOT AVBL
ISLE OF SHOALS   NOT AVBL
S OF BLOCK IS    NOT AVBL
$$

......................KEY.........................
  SKY/WX - SKY CONDITION/PRESENT WEATHER
  TMP    - TEMPERATURE IN FAHRENHEIT
  DWPT   - DEWPOINT IN FAHRENHEIT
  RH     - RELATIVE HUMIDITY IN PERCENT
  WIND   - DIRECTION AND SPEED IN MPH
  PRES   - MEAN SEA LEVEL PRESSURE IN INCHES OF HG
  WCI    - WIND CHILL INDEX
  VSB    - VISIBILITY IN MILES
  HX     - HEAT INDEX
  TC     - TEMPERATURE IN CELSIUS
  VRB    - VARIABLE WIND DIRECTION
  N/A    - NOT AVAILABLE
  
      

Other recent Regional Weather Roundups

Wed Aug 17, 7:10pm

Wed Aug 17, 6:10pm

Wed Aug 17, 5:10pm

Wed Aug 17, 4:10pm

Wed Aug 17, 3:10pm

Wed Aug 17, 2:10pm

Wed Aug 17, 1:10pm

Wed Aug 17, 12:10pm

Wed Aug 17, 11:10am

Wed Aug 17, 10:10am

Wed Aug 17, 9:10am

Wed Aug 17, 8:10am

Wed Aug 17, 7:10am

Wed Aug 17, 6:10am

Wed Aug 17, 5:10am

Wed Aug 17, 4:10am

Wed Aug 17, 3:10am

Wed Aug 17, 2:10am

Wed Aug 17, 1:10am

Wed Aug 17, 12:10am

Tue Aug 16, 11:10pm

Tue Aug 16, 10:10pm

Tue Aug 16, 9:10pm

Tue Aug 16, 8:10pm

Tue Aug 16, 7:10pm

Tue Aug 16, 6:10pm

Tue Aug 16, 5:10pm

Tue Aug 16, 4:10pm

Tue Aug 16, 3:10pm

Tue Aug 16, 2:10pm

Tue Aug 16, 1:10pm

Tue Aug 16, 12:10pm

Tue Aug 16, 11:10am

Tue Aug 16, 10:10am

Tue Aug 16, 9:10am

Tue Aug 16, 8:10am

Tue Aug 16, 7:10am

Tue Aug 16, 6:10am

Tue Aug 16, 5:10am

Tue Aug 16, 4:10am

Tue Aug 16, 3:10am

Tue Aug 16, 2:10am

Tue Aug 16, 1:10am

Tue Aug 16, 12:10am

Mon Aug 15, 11:10pm

Mon Aug 15, 10:10pm

Mon Aug 15, 9:10pm

Mon Aug 15, 8:10pm

Mon Aug 15, 7:10pm

Mon Aug 15, 6:10pm

Mon Aug 15, 5:10pm

Mon Aug 15, 4:10pm

Mon Aug 15, 3:10pm

Mon Aug 15, 1:10pm

Mon Aug 15, 12:10pm

Mon Aug 15, 11:10am

Mon Aug 15, 10:10am

Mon Aug 15, 9:10am

Mon Aug 15, 8:10am

Mon Aug 15, 7:10am

Mon Aug 15, 6:10am

Mon Aug 15, 5:10am

Mon Aug 15, 4:10am

Mon Aug 15, 3:10am

Mon Aug 15, 2:10am

Mon Aug 15, 1:10am

Mon Aug 15, 12:10am

Sun Aug 14, 11:10pm

Sun Aug 14, 10:10pm

Sun Aug 14, 9:10pm

Sun Aug 14, 8:10pm

Sun Aug 14, 7:10pm

Sun Aug 14, 6:10pm

Sun Aug 14, 5:10pm

Sun Aug 14, 4:10pm

Sun Aug 14, 3:10pm

Sun Aug 14, 2:10pm

Sun Aug 14, 1:10pm

Sun Aug 14, 12:10pm

Sun Aug 14, 11:10am

Sun Aug 14, 10:10am

Sun Aug 14, 9:10am

Sun Aug 14, 8:10am

Sun Aug 14, 7:10am

Sun Aug 14, 6:10am

Sun Aug 14, 5:10am

Sun Aug 14, 4:10am

Sun Aug 14, 3:10am

Sun Aug 14, 2:10am

Sun Aug 14, 1:10am

Sun Aug 14, 12:10am

Sat Aug 13, 11:10pm

Sat Aug 13, 10:10pm

Sat Aug 13, 9:10pm

Sat Aug 13, 8:10pm

Sat Aug 13, 7:10pm

Sat Aug 13, 6:10pm

Sat Aug 13, 5:10pm

Sat Aug 13, 4:10pm

Sat Aug 13, 3:10pm

Sat Aug 13, 2:10pm

Sat Aug 13, 1:10pm

Sat Aug 13, 12:10pm

Sat Aug 13, 11:10am

Sat Aug 13, 10:10am

Sat Aug 13, 9:10am

Sat Aug 13, 8:10am

Sat Aug 13, 7:10am

Sat Aug 13, 6:10am

Sat Aug 13, 5:10am

Sat Aug 13, 4:10am

Sat Aug 13, 3:10am

Sat Aug 13, 2:10am

Sat Aug 13, 1:10am

Sat Aug 13, 12:10am

Fri Aug 12, 11:10pm

Fri Aug 12, 10:10pm

Fri Aug 12, 9:10pm

Fri Aug 12, 8:10pm

Fri Aug 12, 7:10pm

Fri Aug 12, 6:10pm

Fri Aug 12, 5:10pm

Fri Aug 12, 4:10pm

Fri Aug 12, 3:10pm

Fri Aug 12, 2:10pm

Fri Aug 12, 1:10pm

Fri Aug 12, 12:10pm

Fri Aug 12, 11:10am

Fri Aug 12, 10:10am

Fri Aug 12, 9:10am

Fri Aug 12, 8:10am

Fri Aug 12, 7:10am

Fri Aug 12, 6:10am

Fri Aug 12, 5:10am

Fri Aug 12, 4:10am

Fri Aug 12, 3:10am

Fri Aug 12, 2:10am

Fri Aug 12, 1:10am

Fri Aug 12, 12:10am

Thu Aug 11, 11:10pm

Thu Aug 11, 10:10pm

Thu Aug 11, 9:10pm

Thu Aug 11, 8:10pm

Thu Aug 11, 7:10pm

Thu Aug 11, 6:10pm

Thu Aug 11, 5:10pm

Thu Aug 11, 4:10pm

Thu Aug 11, 3:10pm

Thu Aug 11, 2:10pm

Thu Aug 11, 1:10pm

Thu Aug 11, 12:10pm

Thu Aug 11, 11:10am

Thu Aug 11, 10:10am

Thu Aug 11, 9:10am

Thu Aug 11, 8:10am

Thu Aug 11, 7:10am

Thu Aug 11, 6:10am

Thu Aug 11, 5:10am

Thu Aug 11, 4:10am

Thu Aug 11, 3:10am

Thu Aug 11, 2:10am

Thu Aug 11, 1:10am

Thu Aug 11, 12:10am

Wed Aug 10, 11:10pm

Wed Aug 10, 10:10pm

Wed Aug 10, 9:10pm

Wed Aug 10, 8:10pm

Meta data:

ID: d8320861-af42-4c8b-b928-677fdbade2ec
Link: https://api.weather.gov/products/d8320861-af42-4c8b-b928-677fdbade2ec